Tracking 28790 objects as of 19-Apr-2024
HD Live streaming from Space Station
objects crossing your sky now

IRIDIUM 33 DEB

Track IRIDIUM 33 DEB now!
10-day predictions


NORAD ID: 36485
Int'l Code: 1997-051WB
Perigee: 616.5 km
Apogee: 732.6 km
Inclination: 86.4 °
Period: 98.1 minutes
Semi major axis: 7045 km
RCS: 0.0014 m2 (small)
Launch date: September 14, 1997
Source: United States (US)
Launch site: TYURATAM MISSILE AND SPACE COMPLEX (TTMTR)

Note: This is SATELLITE DEBRIS
Your satellite tracking list
Your tracking list is empty




NASA's NSSDC Master Catalog

Two Line Element Set (TLE):
1 36485U 97051WB  24109.54999974  .00085925  00000-0  14087-1 0  9990
2 36485  86.4290  39.1597 0082397 352.0836   7.9071 14.68011058750041
Source of the keplerian elements: AFSPC